[[{"header":{"parameterUnit":"m.s-1","parameterCategory":1,"la1":30.2991,"la2":30.254,"lo1":-89.0895,"lo2":-89.0444,"dy":0.0017,"dx":0.0017,"nx":28,"ny":28,"refTime":"2024-03-25T03:00:00:Z","depth":0,"parameterNumber":2,"parameterNumberName":"U-component_of_WINDS"},"data":[0,0,0,0,0,0,0,0,0,0,0,0,0,0,0,0,0,0,0,0,0,0,0,0,0,0,0,0,0,0,0,0,0,0,0,0,0,0,0,0,0,0,0,0,0,0,0,0,0,0,0,0,0,0,0,0,0,0,-7.3231,-7.3233,0,-7.3385,-7.3387,-7.3388,-7.3445,-7.3444,-7.3444,-7.3443,-7.3591,-7.3596,-7.36,0,0,0,0,0,0,0,0,0,0,0,0,0,-7.2978,-7.2983,-7.3231,-7.3233,-7.3235,-7.3385,-7.3387,-7.3389,-7.3445,-7.3444,-7.3444,-7.3443,-7.359,-7.3595,-7.36,0,0,0,0,0,0,0,0,0,0,0,0,0,-7.3105,-7.2984,-7.3231,-7.3281,-7.3287,-7.3384,-7.3387,-7.3389,-7.3445,-7.3444,-7.3444,-7.3443,-7.3588,-7.3594,-7.3601,-7.3656,0,0,-7.3621,-7.3624,0,0,0,0,0,0,0,0,-7.3098,-7.3115,-7.3272,-7.3278,-7.3285,-7.3395,-7.3352,-7.3478,-7.3445,-7.3385,-7.3443,-7.3443,-7.3526,-7.3538,-7.3568,-7.3663,-7.3669,-7.3622,-7.3626,-7.3628,-7.363,0,0,0,0,0,0,0,-7.3089,-7.3108,-7.3292,-7.3274,-7.3282,-7.3294,-7.3311,-7.3376,-7.3457,-7.339,-7.3395,-7.3412,-7.3529,-7.3561,-7.3572,-7.3671,-7.3621,-7.3627,-7.3631,-7.3634,-7.3821,-7.3822,0,0,0,0,0,0,-7.3073,-7.3101,-7.3287,-7.3296,-7.3188,-7.3299,-7.3318,-7.336,-7.3457,-7.3471,-7.3413,-7.3415,-7.355,-7.3564,-7.3577,-7.3649,-7.3628,-7.3635,-7.3638,-7.382,-7.3821,-7.3822,0,0,0,0,0,0,-7.3068,-7.3089,-7.3281,-7.32,-7.3225,-7.3304,-7.3351,-7.3364,-7.3396,-7.3474,-7.3488,-7.3431,-7.355,-7.3568,-7.3637,-7.3654,-7.3638,-7.3644,-7.3819,-7.382,-7.3822,-7.3791,0,0,0,0,0,0,-7.306,-7.3087,-7.311,-7.32,-7.3229,-7.334,-7.3352,-7.3367,-7.3408,-7.3412,-7.3495,-7.3508,-7.3551,-7.3627,-7.3643,-7.3663,-7.3649,-7.3817,-7.3819,-7.3821,-7.3791,-7.3792,-7.3792,0,0,0,0,0,-7.3051,-7.3093,-7.3111,-7.3133,-7.3261,-7.3341,-7.3357,-7.3409,-7.3409,-7.3432,-7.3483,-7.3505,-7.365,-7.3633,-7.3653,-7.3674,-7.3816,-7.3819,-7.3821,-7.3791,-7.3792,-7.3792,0,0,0,0,0,0,-7.3,-7.3106,-7.3127,-7.32,-7.3262,-7.335,-7.3381,-7.3408,-7.3468,-7.3468,-7.3526,-7.3545,-7.3609,-7.3649,-7.3628,-7.3734,-7.3735,-7.3741,-7.3705,-7.3706,-7.3707,-7.3695,-7.3654,0,0,0,0,0,-7.2998,-7.3057,-7.3145,-7.3201,-7.3232,-7.3301,-7.3338,-7.3373,-7.3437,-7.3462,-7.3518,-7.3577,-7.3637,-7.3674,-7.3732,-7.3798,-7.3816,-7.3822,-7.3823,-7.3823,-7.3827,-7.3865,-7.3869,-7.383,-7.383,-7.383,0,0,-7.2992,-7.3058,-7.3091,-7.3193,-7.3245,-7.3302,-7.3322,-7.3382,-7.3425,-7.347,-7.354,-7.3583,-7.3653,-7.3721,-7.3754,-7.3756,-7.3842,-7.3826,-7.3825,-7.383,-7.3868,-7.3871,-7.3874,-7.3831,-7.3831,-7.3831,0,0,-7.3013,-7.3069,-7.3123,-7.3175,-7.3254,-7.3301,-7.3313,-7.3399,-7.3431,-7.3502,-7.3538,-7.3589,-7.3689,-7.3738,-7.3776,-7.3818,-7.384,-7.3835,-7.3837,-7.3873,-7.3876,-7.3879,-7.3894,-7.3898,-7.3839,-7.3839,-7.3839,0,-7.2995,-7.3087,-7.3145,-7.3205,-7.3248,-7.3296,-7.335,-7.3397,-7.3489,-7.3517,-7.352,-7.3649,-7.3699,-7.3779,-7.379,-7.3819,-7.3834,-7.3825,-7.3872,-7.3875,-7.3879,-7.3893,-7.3899,-7.3838,-7.3838,-7.3838,-7.3838,0,-7.3062,-7.3124,-7.3158,-7.3251,-7.3298,-7.3353,-7.3418,-7.3458,-7.349,-7.3535,-7.3607,-7.367,-7.3743,-7.3765,-7.3794,-7.385,-7.3849,-7.3861,-7.3863,-7.3881,-7.3895,-7.3901,-7.3836,-7.3837,-7.3837,-7.3837,0,0,-7.3052,-7.3179,-7.319,-7.3233,-7.3326,-7.3374,-7.3431,-7.3506,-7.3539,-7.3602,-7.3651,-7.3736,-7.3749,-7.3792,-7.3828,-7.386,-7.3889,-7.3868,-7.387,-7.3869,-7.3953,-7.3943,-7.3949,-7.3905,-7.3907,-7.3908,-7.3947,0,-7.3084,-7.3193,-7.3248,-7.3332,-7.339,-7.3438,-7.3488,-7.3548,-7.3593,-7.3647,-7.3695,-7.3755,-7.3767,-7.3793,-7.3827,-7.3878,-7.3906,-7.3876,-7.3949,-7.3951,-7.3929,-7.3957,-7.3946,-7.398,-7.3953,-7.3954,-7.3955,0,-7.3136,-7.3203,-7.3293,-7.338,-7.3406,-7.3451,-7.3524,-7.3576,-7.3646,-7.3676,-7.3725,-7.3761,-7.3822,-7.3821,-7.3905,-7.3883,-7.3916,-7.3946,-7.3948,-7.3956,-7.3953,-7.3964,-7.3992,-7.3997,-7.3965,-7.3964,-7.3963,0,-7.312,-7.3231,-7.33,-7.3336,-7.3439,-7.3469,-7.3513,-7.3582,-7.3624,-7.3688,-7.3715,-7.3783,-7.382,-7.3872,-7.3924,-7.3919,-7.4003,-7.4006,-7.4028,-7.4027,-7.4042,-7.404,-7.4075,-7.4065,-7.4065,-7.4065,-7.4065,0,-7.3149,-7.3202,-7.3295,-7.3337,-7.3398,-7.346,-7.3518,-7.3565,-7.3626,-7.3677,-7.3722,-7.3767,-7.3835,-7.3889,-7.393,-7.3993,-7.4009,-7.4034,-7.4044,-7.403,-7.4027,-7.4051,-7.405,-7.4066,-7.4066,-7.4066,-7.4065,0,-7.3141,-7.3205,-7.3283,-7.3376,-7.34,-7.3441,-7.3519,-7.3561,-7.3609,-7.3672,-7.3691,-7.3764,-7.3831,-7.3889,-7.3975,-7.4003,-7.4067,-7.408,-7.4045,-7.405,-7.4068,-7.4065,-7.412,-7.413,-7.4113,-7.4113,-7.4113,0,-7.3155,-7.3198,-7.3296,-7.3335,-7.3379,-7.3441,-7.3485,-7.3547,-7.3591,-7.3675,-7.3706,-7.3776,-7.3836,-7.3939,-7.3998,-7.4065,-7.4079,-7.4094,-7.4089,-7.4074,-7.4079,-7.4075,-7.408,-7.4093,-7.4093,-7.4093,-7.4093,0,-7.3174,-7.3204,-7.3267,-7.3342,-7.3394,-7.3455,-7.3517,-7.3546,-7.362,-7.3666,-7.3736,-7.3783,-7.3873,-7.3942,-7.4015,-7.4058,-7.4087,-7.4094,-7.4103,-7.4087,-7.4065,-7.4077,-7.4043,-7.4092,-7.4092,-7.4092,-7.4092,-7.4092,-7.3177,-7.3217,-7.3294,-7.3363,-7.3417,-7.3474,-7.3519,-7.3574,-7.3634,-7.3715,-7.3748,-7.3818,-7.3887,-7.399,-7.4033,-7.4088,-7.4093,-7.4105,-7.4108,-7.411,-7.4107,-7.4058,-7.4102,-7.4102,-7.4102,-7.4102,-7.4102,0,-7.3198,-7.325,-7.3313,-7.34,-7.3454,-7.3481,-7.3551,-7.3594,-7.3657,-7.3721,-7.3779,-7.386,-7.3927,-7.3993,-7.4064,-7.4095,-7.411,-7.4111,-7.4109,-7.4118,-7.4099,-7.4085,-7.4098,-7.4098,-7.4098,-7.4098,-7.4098,-7.4098,-7.3215,-7.3285,-7.3324,-7.3421,-7.3473,-7.3545,-7.3583,-7.3636,-7.3687,-7.3776,-7.3833,-7.3877,-7.3942,-7.4018,-7.408,-7.4098,-7.4121,-7.4118,-7.4139,-7.412,-7.4119,-7.4119,-7.4106,-7.4123,-7.4123,-7.4154,-7.4154,-7.4154]},{"header":{"parameterUnit":"m.s-1","parameterCategory":1,"la1":30.2991,"la2":30.254,"lo1":-89.0895,"lo2":-89.0444,"dy":0.0017,"dx":0.0017,"nx":28,"ny":28,"refTime":"2024-03-25T03:00:00:Z","depth":0,"parameterNumber":3,"parameterNumberName":"V-component_of_WINDS"},"data":[0,0,0,0,0,0,0,0,0,0,0,0,0,0,0,0,0,0,0,0,0,0,0,0,0,0,0,0,0,0,0,0,0,0,0,0,0,0,0,0,0,0,0,0,0,0,0,0,0,0,0,0,0,0,0,0,0,0,5.8319,5.832,0,5.8434,5.8435,5.8436,5.8452,5.8451,5.845,5.8449,5.8564,5.8568,5.8572,0,0,0,0,0,0,0,0,0,0,0,0,0,5.8114,5.8117,5.8319,5.832,5.8321,5.8433,5.8435,5.8436,5.8452,5.8451,5.8449,5.8448,5.8563,5.8568,5.8572,0,0,0,0,0,0,0,0,0,0,0,0,0,5.8213,5.8118,5.8318,5.8343,5.8346,5.8433,5.8435,5.8437,5.8452,5.8451,5.8449,5.8448,5.8561,5.8567,5.8573,5.8643,0,0,5.8592,5.8594,0,0,0,0,0,0,0,0,5.8207,5.822,5.8338,5.8341,5.8345,5.8427,5.8405,5.8506,5.8453,5.8412,5.8449,5.8447,5.852,5.8529,5.8554,5.8648,5.8653,5.8592,5.8596,5.8599,5.86,0,0,0,0,0,0,0,5.82,5.8216,5.8364,5.8339,5.8344,5.8348,5.8361,5.8424,5.8473,5.8415,5.8417,5.843,5.8521,5.8548,5.8557,5.8655,5.8592,5.8597,5.8601,5.8604,5.8817,5.8819,0,0,0,0,0,0,5.8189,5.821,5.836,5.8367,5.8271,5.8353,5.8367,5.8402,5.8473,5.8482,5.8432,5.8431,5.8538,5.855,5.8561,5.8651,5.8598,5.8604,5.8608,5.8815,5.8817,5.882,0,0,0,0,0,0,5.8185,5.8202,5.8356,5.8289,5.8309,5.8359,5.8398,5.8405,5.8432,5.8485,5.8494,5.845,5.8538,5.8552,5.8624,5.8655,5.8607,5.8613,5.8813,5.8816,5.8819,5.8829,0,0,0,0,0,0,5.8179,5.8201,5.8227,5.829,5.8312,5.8416,5.84,5.8409,5.8443,5.8443,5.8504,5.8513,5.8537,5.8614,5.863,5.8662,5.8617,5.881,5.8814,5.8818,5.8826,5.8832,5.8837,0,0,0,0,0,5.8171,5.8224,5.8228,5.8247,5.8347,5.8418,5.8431,5.8459,5.8445,5.8473,5.8508,5.8511,5.8649,5.8622,5.8639,5.8674,5.8808,5.8813,5.8817,5.8823,5.8831,5.8837,0,0,0,0,0,0,5.8162,5.8232,5.8238,5.8313,5.836,5.8421,5.8456,5.8465,5.8516,5.8513,5.8545,5.8558,5.8629,5.8658,5.8627,5.8747,5.8727,5.8735,5.8726,5.8733,5.8739,5.8731,5.8622,0,0,0,0,0,5.8169,5.8221,5.828,5.834,5.8363,5.8406,5.8438,5.8455,5.8505,5.8524,5.8564,5.8611,5.8666,5.8701,5.8753,5.883,5.8845,5.8863,5.8868,5.8872,5.888,5.8926,5.8936,5.8834,5.8834,5.8834,0,0,5.8183,5.8228,5.8259,5.8339,5.8378,5.8432,5.8422,5.8479,5.852,5.8533,5.8604,5.8635,5.869,5.8765,5.88,5.8792,5.8911,5.8878,5.8881,5.8886,5.8932,5.8942,5.895,5.8838,5.8837,5.8837,0,0,5.8238,5.8276,5.8332,5.8372,5.8431,5.846,5.8473,5.8534,5.8556,5.8628,5.864,5.8689,5.8781,5.8821,5.8854,5.8928,5.8934,5.8944,5.8973,5.9018,5.9026,5.9033,5.9063,5.9073,5.895,5.895,5.895,0,5.8248,5.8331,5.836,5.8418,5.8454,5.847,5.8529,5.8565,5.8638,5.8663,5.8652,5.8771,5.8809,5.8896,5.8915,5.894,5.8958,5.8937,5.9022,5.903,5.9037,5.9066,5.9077,5.8951,5.8951,5.8951,5.8951,0,5.8342,5.84,5.8438,5.8511,5.8551,5.8608,5.8648,5.8685,5.87,5.873,5.8805,5.8852,5.8916,5.8937,5.8951,5.9028,5.9021,5.9016,5.8997,5.9048,5.9076,5.9086,5.8953,5.8953,5.8952,5.8952,0,0,5.8393,5.8484,5.8498,5.8533,5.8601,5.8646,5.8705,5.877,5.8803,5.8853,5.8905,5.8985,5.8982,5.9019,5.9038,5.9077,5.9137,5.9068,5.907,5.9082,5.9229,5.9234,5.9247,5.9142,5.9144,5.9145,5.9226,0,5.8458,5.8566,5.8596,5.8687,5.8742,5.876,5.8812,5.886,5.889,5.8942,5.8975,5.9032,5.9022,5.9045,5.9085,5.9122,5.9168,5.9116,5.9192,5.9195,5.9181,5.926,5.9266,5.9339,5.9236,5.9238,5.9239,0,5.8548,5.8603,5.8701,5.8766,5.879,5.8836,5.89,5.8948,5.9004,5.9024,5.9067,5.9083,5.9148,5.9124,5.9215,5.9179,5.9212,5.9235,5.9239,5.9248,5.9222,5.9275,5.9362,5.9375,5.9256,5.9255,5.9253,0,5.858,5.8678,5.8751,5.8779,5.8855,5.8889,5.8922,5.8976,5.9014,5.907,5.9095,5.9157,5.9191,5.9239,5.9272,5.9251,5.9361,5.9339,5.9381,5.938,5.9404,5.9403,5.9501,5.9421,5.9421,5.9421,5.942,0,5.8651,5.8711,5.8767,5.8811,5.888,5.8914,5.898,5.9014,5.9063,5.9116,5.9133,5.9182,5.9221,5.9276,5.9302,5.9375,5.9389,5.9408,5.9415,5.9408,5.9406,5.9432,5.9429,5.9424,5.9423,5.9422,5.9422,0,5.8699,5.8738,5.8819,5.8886,5.8904,5.8952,5.9009,5.9054,5.9086,5.9152,5.917,5.922,5.9285,5.9323,5.9404,5.9422,5.9505,5.9507,5.9487,5.949,5.9531,5.9528,5.9651,5.967,5.9575,5.9575,5.9576,0,5.8743,5.879,5.8863,5.89,5.8935,5.8993,5.9034,5.9069,5.911,5.918,5.9217,5.9284,5.934,5.9444,5.9488,5.9551,5.9557,5.9596,5.9567,5.956,5.9562,5.956,5.9567,5.9602,5.9603,5.9603,5.9604,0,5.8819,5.8837,5.8894,5.896,5.9007,5.906,5.9113,5.9142,5.9187,5.9232,5.9301,5.9344,5.943,5.9497,5.9565,5.9599,5.9611,5.9613,5.9627,5.9621,5.9609,5.962,5.9503,5.961,5.9609,5.9609,5.9609,5.9608,5.8868,5.8913,5.8972,5.9036,5.908,5.913,5.9177,5.9215,5.9273,5.9347,5.9364,5.9437,5.9494,5.9587,5.9624,5.9682,5.9675,5.9694,5.9699,5.9704,5.9708,5.9598,5.9694,5.9694,5.9694,5.9694,5.9694,0,5.8948,5.8987,5.9046,5.9121,5.9172,5.9178,5.9238,5.9281,5.9345,5.9398,5.9454,5.9534,5.96,5.965,5.9719,5.9756,5.9763,5.9773,5.9772,5.978,5.9708,5.9691,5.9766,5.9766,5.9766,5.9766,5.9766,5.9766,5.8995,5.9072,5.9097,5.9197,5.9236,5.9309,5.9343,5.9389,5.9432,5.9522,5.9578,5.961,5.9663,5.9736,5.9798,5.9811,5.9837,5.9847,5.9861,5.9793,5.9785,5.9777,5.9762,5.9851,5.9851,5.9929,5.993,5.993]}]]